Temp
4 4 4 4 4 4 4 4 4 4 4 4 5 5 5 6 6 6 6 6 7 7 7 7 7 7 7 7 7 7 7 7 8 8 8 9 9 9 8 8 8 8 9 9 9 9 9 9 8 8 8 8 8 8 7 7 7 7 7 7 7 7 8 8 8 7 7 7 7
4 4 4 4 4 4 4 4 4 5 5 5 5 5 5 5 5 6 6 6 6 6 7 7 7 7 7 7 6 6 7 7 8 8 8 8 8 8 8 8 8 8 8 8 9 9 9 9 9 8 8 8 8 7 7 7 7 7 7 7 7 7 7 7 7 7 6 6 7
4 3 3 3 4 4 4 4 4 4 5 5 5 5 4 5 5 5 5 5 6 6 6 6 6 7 7 6 6 6 6 7 7 7 7 7 8 8 8 8 8 8 8 8 8 8 9 9 9 9 8 8 8 7 7 7 7 7 6 6 6 6 6 6 6 6 6 6 6
3 3 3 3 3 4 4 4 4 4 4 4 4 4 4 4 4 4 5 5 5 5 6 6 6 6 6 6 6 6 6 6 7 7 7 7 7 7 8 8 8 8 8 8 8 8 8 8 8 8 8 8 7 7 7 7 7 6 6 6 6 6 6 6 6 6 6 6 5
3 3 3 3 3 3 3 3 3 4 4 4 4 4 4 4 4 4 4 5 5 5 5 5 5 5 5 6 5 5 5 6 6 6 6 6 6 7 7 7 8 8 7 7 7 8 8 8 8 8 8 8 7 7 7 7 6 6 6 6 6 6 6 6 6 6 6 5 5
3 3 3 3 3 3 3 3 3 3 3 3 4 4 4 4 4 4 4 4 5 5 5 5 5 5 5 5 5 5 5 5 5 5 6 6 6 6 6 7 7 7 7 7 7 7 7 8 8 8 7 7 7 7 6 6 6 6 6 5 5 5 5 5 5 5 5 5 5
3 3 3 3 3 3 3 3 3 3 3 3 3 4 4 4 4 4 4 4 4 4 4 4 4 4 5 4 4 4 4 4 5 5 5 5 5 6 6 6 7 7 7 7 7 7 7 7 7 7 7 7 7 7 6 6 6 6 5 5 5 5 5 5 5 5 5 4 4
3 3 3 3 3 3 3 3 3 3 3 3 3 3 3 4 4 4 4 4 4 4 4 4 4 4 4 4 4 3 3 4 4 4 5 5 5 5 6 6 6 7 7 7 7 7 7 7 7 7 7 7 7 6 6 6 6 5 5 5 5 5 5 5 5 5 4 4 3
3 3 3 3 3 3 3 3 3 3 3 3 3 3 3 3 4 4 4 4 4 4 4 4 4 4 4 4 3 3 3 3 4 4 4 4 4 5 5 6 6 6 6 6 6 6 6 6 6 7 7 7 7 6 6 6 6 5 5 5 5 5 5 4 4 4 4 3 3
3 3 3 3 3 3 3 3 3 2 3 3 3 3 3 3 3 4 4 4 4 4 4 4 4 4 3 3 3 3 3 3 3 4 4 4 4 4 5 5 6 6 6 6 6 6 6 6 6 6 6 6 6 6 6 6 5 5 5 5 5 5 4 4 4 4 3 3 3
3 3 3 3 3 3 3 2 2 2 2 2 2 3 3 3 3 3 4 4 4 4 4 4 4 4 3 3 3 3 2 3 3 3 4 4 4 4 4 5 5 5 6 6 6 5 5 5 5 5 5 6 6 6 6 5 5 5 5 5 5 4 4 4 4 4 3 3 3
3 3 3 3 3 2 2 2 2 2 2 2 2 2 2 3 3 3 3 4 4 4 4 4 4 4 3 3 3 3 2 2 3 3 3 4 4 4 4 4 5 5 5 5 5 5 5 5 5 5 5 5 5 5 5 5 5 5 5 4 4 4 4 4 3 3 3 3 2
3 3 3 3 2 2 2 2 2 2 2 2 2 2 2 2 2 3 3 3 3 4 4 3 4 3 3 3 3 2 2 2 3 3 3 3 4 4 4 4 4 5 5 5 5 5 4 4 4 4 4 4 4 4 4 4 4 4 4 4 4 4 4 3 3 3 3 2 2
2 2 2 2 2 2 2 2 2 2 2 1 1 1 1 2 2 2 2 3 3 3 3 3 3 3 3 3 2 2 2 2 3 3 3 3 3 3 4 4 4 4 4 4 4 4 4 4 4 4 4 4 4 4 4 4 4 4 4 4 4 3 3 3 3 2 2 2 1
2 2 2 2 2 2 2 2 1 1 1 1 1 1 1 1 1 1 1 2 2 2 2 3 3 3 3 2 2 2 2 2 3 3 3 3 3 3 3 3 3 4 4 4 4 4 4 4 4 4 4 4 3 3 3 3 3 3 3 3 3 3 3 2 2 2 2 1 1
2 2 2 2 2 2 2 1 1 1 1 1 0 0 0 0 0 0 0 1 1 1 2 2 2 2 2 2 2 2 2 2 2 3 3 3 3 3 3 3 3 3 4 4 4 3 3 3 3 3 3 3 3 3 3 2 2 2 3 3 3 3 2 2 2 1 1 1 1
2 2 2 2 2 2 1 1 1 0 0 0 -0 -0 -0 -0 -1 -0 -0 -0 0 0 1 1 2 2 2 2 2 2 2 2 2 2 3 3 3 3 3 3 3 3 3 3 3 3 3 3 3 3 3 3 3 3 2 2 2 2 2 2 2 2 2 1 1 1 1 0 1
2 2 2 2 2 1 1 1 0 0 -0 -0 -0 -0 -1 -1 -1 -1 -1 -1 -1 -0 0 1 1 1 1 1 1 2 2 2 2 2 2 3 3 2 2 2 2 3 3 3 3 2 2 2 2 2 2 2 2 2 2 2 1 1 1 1 1 1 1 0 0 0 -0 -0 0
1 1 1 1 1 1 1 0 -0 -0 -0 -1 -1 -1 -1 -1 -1 -1 -1 -1 -1 -1 -0 0 1 1 1 1 1 1 2 2 2 2 2 2 2 2 2 2 2 2 2 2 2 2 2 2 2 2 2 1 1 1 1 1 1 1 0 0 0 0 -0 -0 -0 -1 -0 -0 -0
1 1 1 1 1 1 0 -0 -0 -1 -1 -1 -1 -1 -1 -1 -1 -2 -2 -2 -1 -1 -1 -0 0 1 1 1 1 1 2 2 2 2 2 2 2 2 2 2 2 2 2 2 2 2 1 1 1 1 1 1 1 0 0 0 -0 -0 -0 -0 -0 -1 -1 -1 -1 -1 -1 -0 0
1 1 1 1 1 0 -0 -1 -1 -1 -1 -1 -1 -1 -1 -1 -2 -2 -2 -2 -2 -1 -1 -1 -0 0 0 1 1 1 1 2 2 1 1 2 2 2 2 1 1 1 1 1 1 1 1 1 1 1 1 0 0 -0 -0 -1 -1 -1 -1 -1 -1 -1 -1 -1 -1 -0 -0 -0 0
0 0 0 0 -0 -0 -1 -1 -1 -1 -1 -1 -1 -1 -2 -2 -2 -2 -2 -2 -2 -2 -1 -1 -1 -0 0 0 1 1 1 2 1 1 1 1 1 1 1 1 1 1 1 1 1 1 1 1 0 0 0 -0 -0 -0 -1 -1 -1 -1 -1 -1 -1 -1 -1 -1 -0 -0 -0 -0 -0
-0 -0 -0 -0 -1 -1 -1 -1 -1 -2 -2 -2 -2 -2 -2 -2 -2 -2 -2 -2 -2 -2 -2 -1 -1 -1 -1 -0 0 1 1 1 1 1 1 1 1 1 1 1 1 1 0 0 0 0 0 0 0 -0 -0 -0 -1 -1 -1 -1 -1 -1 -1 -1 -1 -1 -1 -1 -1 -1 -1 -1 -1
-1 -1 -1 -1 -1 -1 -1 -2 -2 -2 -2 -2 -2 -2 -2 -2 -2 -2 -2 -2 -2 -2 -2 -2 -1 -1 -1 -1 -0 0 1 1 1 1 1 1 1 1 1 1 1 0 0 0 0 0 0 -0 -0 -0 -1 -1 -1 -1 -1 -1 -1 -1 -1 -1 -1 -1 -1 -1 -1 -1 -1 -1 -1
-1 -1 -1 -1 -2 -2 -2 -2 -2 -2 -2 -2 -2 -2 -2 -3 -2 -2 -2 -2 -2 -2 -2 -1 -1 -1 -1 -1 -0 0 1 1 1 1 1 1 1 1 1 0 0 0 0 0 0 0 -0 -0 -0 -1 -1 -1 -1 -1 -1 -1 -1 -1 -1 -1 -1 -1 -1 -1 -1 -1 -1 -1 -1
-2 -2 -2 -2 -2 -2 -2 -2 -2 -2 -2 -3 -3 -3 -3 -3 -3 -3 -2 -2 -2 -2 -2 -2 -1 -1 -1 -1 -0 0 1 1 1 1 1 1 1 0 0 0 0 0 0 0 -0 -0 -0 -0 -0 -0 -1 -1 -1 -1 -1 -1 -1 -1 -1 -1 -1 -1 -1 -2 -2 -2 -2 -2 -2
-2 -2 -2 -2 -2 -2 -2 -2 -2 -2 -3 -3 -3 -3 -3 -3 -3 -3 -3 -2 -2 -2 -2 -2 -2 -1 -1 -1 -0 0 1 1 1 1 1 1 0 0 0 0 0 0 -0 -0 -0 -0 -0 -0 -0 -0 -1 -1 -1 -1 -1 -1 -1 -1 -1 -1 -1 -1 -1 -2 -2 -2 -2 -2 -2
-2 -2 -2 -3 -3 -3 -3 -3 -3 -3 -3 -3 -3 -3 -3 -3 -3 -3 -3 -3 -3 -2 -2 -2 -2 -1 -1 -1 -0 0 0 1 1 0 0 0 0 0 0 0 -0 -0 -0 -0 -0 -0 -0 -0 -0 -0 -1 -1 -1 -1 -1 -1 -1 -1 -1 -1 -1 -1 -2 -2 -2 -2 -2 -2 -2
-2 -2 -3 -3 -3 -3 -3 -3 -3 -3 -3 -3 -3 -3 -3 -3 -3 -3 -3 -3 -3 -3 -2 -2 -2 -1 -1 -0 -0 0 0 0 0 0 0 0 -0 0 -0 -0 -0 -0 -0 -0 -0 -0 -0 -0 -0 -0 -0 -1 -1 -1 -1 -1 -1 -2 -2 -2 -2 -2 -2 -2 -2 -2 -2 -2 -1
-2 -3 -3 -3 -3 -3 -3 -3 -3 -3 -3 -3 -3 -3 -3 -3 -3 -3 -3 -3 -3 -3 -3 -2 -2 -1 -1 -0 0 0 0 0 0 0 -0 -0 -0 -0 -0 -0 -0 -0 -0 -0 -0 -0 -0 -0 -0 -0 -1 -1 -1 -1 -1 -1 -2 -2 -2 -2 -2 -2 -2 -2 -2 -2 -1 -1 -1
-3 -3 -3 -3 -3 -3 -3 -3 -3 -3 -3 -3 -4 -4 -4 -4 -4 -4 -3 -3 -3 -3 -3 -2 -2 -1 -1 0 0 0 0 0 0 0 -0 -0 -0 -0 -0 -0 -0 -0 -0 -0 -0 -0 -0 -0 -1 -1 -1 -1 -1 -1 -2 -2 -2 -2 -2 -2 -2 -2 -2 -2 -2 -2 -1 -1 -1
-3 -3 -3 -3 -3 -4 -4 -4 -4 -4 -4 -4 -4 -4 -4 -4 -4 -4 -4 -3 -3 -3 -3 -2 -2 -1 -0 0 0 0 0 0 0 0 -0 -0 -0 -0 -0 -0 -1 -1 -0 -0 -0 -1 -1 -1 -1 -1 -1 -1 -1 -2 -2 -2 -2 -2 -2 -2 -2 -2 -2 -2 -2 -1 -1 -1 -0
-3 -3 -3 -4 -4 -4 -4 -4 -4 -4 -4 -4 -4 -4 -4 -4 -4 -4 -4 -4 -3 -3 -3 -2 -2 -1 -0 0 0 0 0 0 0 0 0 -0 -0 -0 -0 -1 -1 -1 -1 -1 -1 -1 -1 -1 -1 -1 -1 -1 -2 -2 -2 -2 -2 -2 -3 -3 -3 -2 -2 -2 -2 -1 -1 -0 -0
-3 -4 -4 -4 -4 -4 -4 -4 -4 -4 -4 -4 -4 -4 -4 -4 -4 -4 -4 -3 -3 -3 -3 -2 -2 -1 -0 0 0 0 0 0 0 0 0 0 -0 -0 -0 -1 -1 -1 -1 -1 -1 -1 -1 -1 -2 -2 -2 -2 -2 -2 -2 -2 -2 -3 -3 -3 -3 -2 -2 -2 -1 -1 -1 -0 0
-4 -4 -4 -4 -4 -4 -4 -4 -4 -4 -4 -4 -4 -4 -4 -4 -4 -4 -4 -3 -3 -3 -2 -2 -1 -1 -0 0 1 0 0 -0 -0 -0 0 0 -0 -0 -1 -1 -1 -1 -1 -1 -1 -1 -1 -2 -2 -2 -2 -2 -2 -2 -2 -2 -2 -2 -2 -2 -2 -2 -2 -2 -1 -1 -1 -0 0
-4 -4 -4 -4 -4 -4 -4 -4 -4 -5 -5 -5 -5 -5 -4 -4 -4 -4 -4 -4 -3 -3 -2 -2 -1 -1 0 1 1 0 0 -0 -0 -0 -0 -0 -0 -1 -1 -1 -1 -1 -1 -1 -1 -1 -2 -2 -2 -2 -2 -2 -2 -2 -2 -2 -2 -2 -2 -2 -2 -2 -2 -2 -1 -1 -1 -1 -0
-4 -4 -4 -5 -5 -5 -5 -5 -5 -5 -5 -5 -5 -5 -5 -4 -4 -4 -4 -4 -3 -3 -2 -2 -1 -0 0 1 1 0 -0 -0 -0 -0 -0 -0 -1 -1 -1 -2 -1 -1 -1 -1 -1 -2 -2 -2 -2 -2 -2 -2 -2 -2 -2 -2 -2 -2 -2 -2 -2 -2 -2 -2 -2 -2 -1 -1 -0
-5 -5 -5 -5 -5 -5 -5 -5 -5 -5 -5 -5 -5 -5 -5 -4 -4 -4 -4 -4 -3 -3 -2 -2 -1 -0 0 1 1 0 -0 -0 -0 -0 -0 -1 -1 -1 -2 -2 -1 -1 -2 -2 -2 -2 -2 -1 -2 -2 -2 -2 -2 -2 -2 -2 -2 -2 -2 -2 -2 -2 -2 -2 -2 -2 -2 -1 -0
-5 -5 -5 -5 -5 -5 -5 -5 -5 -5 -5 -5 -5 -5 -5 -4 -4 -4 -4 -4 -3 -3 -2 -2 -1 -0 0 1 1 0 -0 -1 -1 -1 -1 -1 -1 -2 -1 -1 -1 -2 -2 -2 -2 -1 -1 -1 -2 -2 -2 -1 -2 -2 -2 -2 -2 -2 -2 -3 -3 -3 -3 -3 -3 -2 -2 -1 -0
-5 -5 -5 -5 -5 -5 -5 -5 -5 -5 -5 -5 -5 -5 -5 -4 -4 -4 -4 -3 -3 -3 -2 -2 -1 -0 0 0 0 0 -0 -1 -1 -1 -1 -1 -2 -2 -1 -1 -1 -2 -2 -1 -1 -1 -1 -1 -2 -1 -1 -1 -2 -2 -2 -2 -2 -2 -3 -3 -3 -3 -3 -3 -3 -3 -2 -1 -1
-6 -6 -6 -6 -6 -6 -6 -6 -6 -5 -5 -5 -5 -5 -5 -4 -4 -4 -4 -3 -3 -3 -2 -1 -1 -0 -0 0 0 0 -0 -1 -1 -1 -1 -2 -2 -2 -2 -1 -1 -1 -1 -1 -1 -1 -1 -2 -1 -1 -1 -1 -2 -2 -2 -2 -2 -3 -3 -3 -3 -3 -3 -3 -3 -3 -2 -2 -1
Height
1455 1454 1453 1452 1451 1450 1449 1447 1446 1445 1444 1443 1442 1441 1440 1439 1437 1435 1434 1433 1432 1431 1430 1429 1428 1427 1426 1425 1424 1423 1422 1421 1420 1419 1419 1419 1419 1418 1418 1417 1418 1418 1417 1416 1415 1416 1417 1419 1419 1420 1420 1422 1423 1423 1424 1425 1427 1428 1430 1432 1434 1436 1438 1440 1441 1442 1444 1445 1446
1453 1452 1451 1450 1449 1448 1447 1445 1444 1443 1442 1441 1440 1439 1438 1436 1435 1434 1432 1431 1430 1429 1428 1426 1425 1425 1424 1422 1421 1420 1419 1418 1417 1416 1416 1416 1416 1416 1415 1415 1415 1415 1415 1414 1413 1413 1413 1415 1415 1415 1416 1418 1419 1420 1421 1422 1424 1425 1426 1428 1430 1432 1435 1436 1437 1439 1440 1443 1445
1450 1450 1449 1448 1447 1446 1445 1444 1443 1441 1440 1439 1438 1437 1435 1434 1433 1431 1430 1428 1427 1426 1425 1424 1423 1422 1421 1419 1418 1417 1416 1415 1415 1414 1413 1412 1413 1413 1413 1412 1412 1412 1412 1412 1411 1410 1410 1411 1411 1411 1412 1414 1416 1417 1418 1419 1420 1421 1423 1424 1426 1428 1430 1432 1433 1435 1437 1439 1441
1449 1448 1447 1446 1445 1444 1443 1442 1440 1439 1438 1437 1435 1434 1433 1431 1430 1429 1427 1426 1425 1423 1422 1421 1420 1419 1418 1417 1415 1414 1413 1412 1412 1411 1410 1409 1409 1410 1410 1409 1409 1409 1409 1409 1409 1408 1408 1408 1408 1408 1409 1410 1412 1413 1414 1415 1417 1418 1420 1421 1423 1424 1425 1427 1429 1430 1432 1434 1436
1447 1446 1445 1444 1443 1441 1440 1439 1438 1437 1435 1434 1433 1431 1430 1429 1428 1426 1425 1424 1422 1421 1420 1419 1418 1417 1415 1414 1412 1411 1410 1410 1409 1408 1407 1406 1406 1406 1406 1406 1406 1406 1405 1405 1406 1406 1406 1406 1406 1405 1406 1407 1408 1409 1410 1411 1413 1415 1416 1418 1419 1420 1421 1423 1425 1426 1428 1430 1432
1445 1444 1443 1441 1440 1439 1438 1437 1435 1434 1433 1431 1430 1429 1427 1426 1425 1424 1422 1421 1420 1419 1418 1416 1415 1414 1413 1411 1410 1408 1408 1407 1406 1405 1404 1403 1403 1403 1403 1403 1403 1403 1402 1402 1403 1403 1403 1404 1403 1403 1404 1405 1405 1407 1408 1409 1410 1411 1413 1415 1416 1417 1419 1420 1421 1423 1425 1427 1429
1443 1442 1440 1439 1438 1437 1435 1434 1433 1432 1430 1429 1428 1426 1425 1424 1423 1421 1420 1419 1417 1416 1415 1414 1412 1411 1410 1408 1406 1405 1405 1405 1404 1403 1402 1400 1400 1400 1400 1399 1400 1400 1399 1399 1399 1400 1400 1400 1401 1401 1401 1402 1403 1405 1406 1407 1408 1409 1410 1412 1414 1415 1417 1418 1420 1420 1422 1423 1425
1441 1440 1438 1437 1436 1434 1433 1432 1430 1429 1428 1426 1425 1423 1422 1421 1420 1418 1417 1416 1415 1413 1412 1411 1410 1409 1407 1406 1404 1402 1402 1402 1401 1400 1399 1398 1397 1397 1396 1397 1397 1396 1396 1396 1396 1397 1397 1398 1398 1398 1398 1399 1401 1402 1404 1405 1406 1407 1408 1409 1411 1413 1415 1416 1417 1418 1419 1420 1421
1439 1437 1436 1434 1433 1431 1430 1429 1427 1426 1425 1423 1422 1420 1419 1418 1416 1415 1414 1413 1411 1410 1409 1408 1407 1406 1405 1403 1401 1400 1399 1399 1398 1398 1397 1396 1395 1394 1394 1394 1394 1394 1394 1394 1394 1394 1394 1395 1395 1395 1396 1397 1398 1400 1401 1402 1403 1404 1405 1407 1409 1410 1411 1412 1414 1415 1415 1416 1418
1436 1435 1433 1432 1430 1429 1427 1426 1424 1423 1422 1420 1419 1417 1416 1415 1414 1412 1411 1410 1409 1407 1406 1405 1404 1403 1402 1400 1399 1398 1397 1397 1396 1395 1394 1393 1392 1391 1391 1390 1391 1390 1390 1390 1391 1391 1392 1392 1392 1392 1393 1394 1395 1396 1398 1399 1400 1402 1403 1405 1406 1407 1409 1410 1411 1412 1413 1414 1415
1434 1433 1431 1430 1428 1426 1425 1423 1421 1420 1419 1417 1415 1414 1413 1412 1410 1409 1408 1407 1406 1405 1403 1402 1401 1400 1399 1398 1396 1395 1395 1395 1394 1392 1391 1391 1390 1389 1388 1388 1387 1387 1387 1387 1388 1389 1389 1389 1389 1390 1390 1391 1393 1394 1395 1396 1398 1399 1400 1402 1403 1405 1406 1407 1409 1411 1412 1413 1414
1432 1430 1429 1427 1425 1424 1422 1420 1419 1417 1416 1414 1412 1411 1410 1409 1407 1406 1405 1405 1403 1401 1400 1400 1399 1398 1396 1395 1394 1393 1392 1391 1390 1389 1388 1388 1387 1386 1385 1385 1385 1384 1384 1384 1385 1385 1386 1386 1387 1387 1388 1389 1390 1391 1392 1394 1395 1396 1398 1400 1401 1402 1404 1405 1407 1409 1410 1411 1413
1430 1428 1426 1425 1423 1422 1420 1418 1416 1415 1413 1411 1410 1409 1407 1405 1404 1403 1402 1401 1400 1399 1397 1396 1395 1395 1393 1392 1391 1390 1389 1388 1387 1386 1385 1384 1384 1383 1383 1382 1381 1381 1381 1381 1382 1383 1383 1384 1384 1385 1385 1386 1388 1389 1390 1391 1393 1394 1395 1397 1398 1400 1401 1402 1404 1406 1407 1409 1411
1427 1426 1424 1423 1421 1420 1418 1416 1414 1413 1411 1409 1407 1406 1405 1403 1401 1400 1399 1398 1397 1395 1394 1393 1392 1391 1390 1389 1388 1387 1386 1385 1385 1383 1382 1381 1380 1380 1380 1379 1379 1378 1378 1378 1379 1380 1380 1380 1381 1382 1383 1384 1385 1387 1388 1390 1391 1392 1393 1394 1396 1397 1399 1400 1401 1403 1405 1406 1408
1425 1424 1422 1420 1419 1417 1416 1414 1412 1410 1408 1406 1405 1403 1401 1400 1398 1397 1396 1395 1393 1392 1391 1390 1388 1387 1386 1385 1385 1384 1383 1382 1381 1380 1379 1378 1377 1377 1377 1376 1376 1375 1375 1375 1376 1377 1377 1378 1378 1379 1380 1381 1383 1385 1386 1388 1389 1390 1391 1392 1394 1395 1396 1398 1399 1400 1402 1403 1405
1423 1421 1420 1418 1417 1415 1413 1411 1410 1407 1405 1403 1401 1400 1398 1396 1395 1393 1392 1390 1389 1388 1387 1386 1385 1384 1382 1381 1381 1380 1379 1379 1378 1377 1376 1375 1375 1374 1374 1373 1373 1372 1372 1372 1373 1374 1375 1375 1375 1376 1378 1379 1380 1382 1384 1385 1387 1389 1390 1391 1392 1393 1394 1396 1397 1398 1400 1400 1402
1421 1419 1418 1416 1414 1413 1411 1409 1407 1405 1402 1400 1398 1396 1395 1393 1391 1389 1388 1386 1385 1385 1383 1382 1381 1380 1379 1378 1377 1376 1376 1375 1374 1374 1373 1372 1371 1371 1370 1370 1370 1369 1369 1370 1370 1371 1371 1372 1373 1374 1375 1377 1378 1380 1381 1383 1385 1387 1388 1390 1391 1392 1393 1394 1395 1396 1398 1399 1400
1418 1417 1415 1414 1412 1410 1408 1406 1404 1401 1399 1397 1395 1393 1391 1389 1387 1385 1384 1383 1382 1380 1379 1378 1377 1376 1375 1375 1373 1373 1373 1372 1371 1370 1370 1369 1369 1368 1367 1367 1366 1366 1366 1366 1367 1368 1369 1369 1370 1372 1373 1375 1376 1378 1379 1381 1383 1385 1386 1388 1389 1390 1392 1393 1394 1395 1396 1396 1397
1416 1414 1413 1411 1409 1407 1405 1403 1401 1398 1396 1394 1391 1389 1387 1385 1383 1382 1380 1378 1377 1377 1376 1375 1374 1373 1372 1371 1370 1370 1370 1369 1368 1367 1367 1366 1365 1365 1364 1364 1364 1364 1363 1364 1364 1365 1366 1366 1368 1369 1371 1372 1374 1376 1377 1379 1381 1383 1385 1386 1388 1389 1390 1392 1393 1394 1395 1395 1396
1413 1412 1410 1408 1407 1405 1402 1400 1398 1395 1393 1390 1388 1385 1383 1381 1380 1378 1376 1375 1373 1373 1372 1371 1370 1369 1368 1368 1367 1367 1366 1366 1365 1364 1364 1363 1363 1362 1361 1361 1361 1361 1361 1361 1362 1362 1363 1364 1365 1367 1369 1370 1372 1374 1376 1377 1379 1381 1383 1385 1386 1388 1390 1391 1393 1394 1395 1397 1398
1411 1409 1407 1406 1404 1402 1400 1397 1394 1392 1389 1387 1384 1382 1380 1377 1376 1375 1373 1371 1370 1369 1368 1367 1366 1365 1365 1365 1364 1364 1363 1363 1362 1361 1360 1360 1360 1359 1359 1359 1359 1359 1359 1359 1359 1360 1360 1361 1363 1365 1367 1369 1370 1372 1374 1376 1378 1380 1382 1384 1386 1388 1390 1391 1393 1395 1397 1398 1400
1408 1406 1405 1403 1401 1399 1396 1394 1391 1389 1386 1383 1381 1379 1376 1374 1373 1371 1370 1368 1367 1366 1365 1363 1363 1362 1361 1361 1361 1360 1360 1359 1359 1358 1357 1356 1356 1356 1356 1356 1356 1356 1357 1357 1357 1358 1358 1359 1361 1363 1365 1367 1369 1371 1373 1375 1377 1379 1381 1383 1386 1388 1390 1392 1394 1395 1397 1398 1400
1405 1403 1401 1399 1397 1395 1393 1390 1388 1385 1383 1380 1378 1375 1374 1372 1370 1368 1366 1365 1364 1362 1361 1360 1359 1358 1358 1357 1357 1357 1356 1356 1356 1355 1354 1354 1353 1353 1353 1354 1354 1354 1354 1355 1355 1355 1356 1357 1359 1361 1364 1365 1368 1370 1371 1373 1375 1378 1380 1383 1385 1387 1390 1391 1393 1395 1396 1398 1400
1402 1400 1398 1396 1394 1391 1389 1387 1385 1382 1380 1377 1375 1373 1371 1369 1367 1365 1364 1362 1361 1359 1358 1357 1355 1355 1354 1353 1353 1353 1353 1353 1353 1352 1351 1351 1350 1350 1350 1351 1351 1352 1352 1352 1352 1352 1353 1355 1357 1360 1362 1364 1366 1369 1370 1372 1375 1377 1379 1381 1384 1386 1388 1390 1392 1394 1396 1398 1400
1398 1396 1394 1392 1390 1388 1386 1384 1381 1379 1377 1375 1372 1370 1368 1365 1364 1362 1360 1359 1357 1356 1355 1354 1352 1351 1350 1350 1349 1349 1349 1349 1349 1349 1349 1348 1348 1348 1348 1348 1349 1350 1350 1350 1350 1350 1351 1352 1355 1357 1360 1363 1365 1367 1370 1372 1374 1376 1378 1380 1382 1385 1387 1389 1391 1394 1396 1398 1400
1395 1393 1390 1389 1386 1385 1382 1380 1379 1376 1374 1372 1370 1367 1365 1363 1361 1359 1357 1355 1354 1353 1352 1350 1349 1348 1347 1346 1345 1345 1345 1345 1345 1345 1345 1345 1345 1345 1345 1346 1347 1348 1349 1349 1348 1348 1349 1350 1352 1355 1358 1360 1363 1366 1369 1371 1373 1375 1377 1379 1381 1383 1385 1388 1390 1393 1395 1398 1400
1391 1389 1387 1385 1383 1381 1379 1377 1375 1373 1371 1369 1367 1364 1362 1360 1357 1355 1354 1352 1351 1350 1349 1347 1346 1345 1344 1343 1342 1341 1340 1340 1341 1341 1342 1342 1342 1343 1343 1343 1345 1346 1347 1347 1347 1347 1348 1349 1351 1353 1356 1359 1362 1364 1367 1370 1372 1374 1376 1378 1380 1382 1385 1387 1390 1392 1395 1397 1399
1389 1386 1384 1382 1380 1378 1376 1374 1372 1370 1368 1366 1364 1361 1359 1356 1354 1352 1350 1349 1347 1346 1345 1344 1343 1342 1340 1339 1338 1337 1337 1337 1338 1339 1339 1340 1340 1341 1341 1341 1342 1344 1345 1345 1345 1346 1346 1348 1349 1351 1354 1357 1360 1363 1366 1368 1371 1373 1375 1378 1380 1382 1384 1386 1389 1391 1393 1395 1397
1386 1383 1381 1379 1376 1374 1373 1371 1369 1367 1365 1363 1360 1358 1355 1353 1351 1349 1347 1345 1344 1343 1342 1340 1340 1339 1337 1336 1335 1335 1335 1335 1336 1337 1338 1339 1340 1340 1340 1340 1341 1342 1343 1343 1344 1345 1346 1347 1348 1350 1353 1356 1359 1362 1365 1368 1370 1372 1375 1377 1380 1382 1384 1386 1388 1390 1392 1394 1396
1383 1380 1378 1375 1373 1371 1370 1368 1366 1364 1362 1360 1357 1355 1352 1350 1347 1345 1344 1342 1341 1339 1338 1337 1336 1335 1335 1334 1333 1333 1333 1333 1334 1335 1336 1337 1339 1340 1340 1340 1340 1340 1341 1341 1342 1344 1345 1346 1348 1350 1353 1355 1359 1361 1364 1367 1369 1372 1374 1377 1379 1382 1384 1386 1387 1389 1391 1393 1395
1380 1378 1375 1373 1370 1368 1366 1365 1363 1361 1359 1357 1354 1351 1349 1346 1344 1342 1341 1339 1338 1336 1335 1334 1333 1332 1332 1332 1331 1330 1331 1331 1332 1334 1335 1336 1337 1338 1339 1339 1340 1339 1339 1340 1342 1343 1345 1346 1347 1350 1352 1355 1358 1361 1364 1366 1369 1371 1374 1376 1379 1381 1384 1385 1387 1389 1390 1392 1394
1377 1375 1373 1370 1368 1365 1364 1362 1360 1358 1356 1354 1351 1348 1346 1343 1341 1339 1338 1336 1335 1333 1332 1331 1330 1329 1329 1329 1329 1328 1328 1329 1330 1331 1333 1335 1336 1337 1338 1339 1339 1338 1338 1340 1342 1343 1344 1346 1348 1350 1352 1355 1358 1361 1364 1366 1369 1372 1374 1377 1379 1381 1383 1385 1387 1389 1390 1392 1394
1375 1372 1370 1367 1365 1363 1361 1359 1357 1355 1353 1350 1348 1345 1343 1340 1338 1336 1335 1333 1332 1331 1330 1328 1327 1326 1326 1327 1326 1326 1326 1327 1328 1329 1331 1333 1335 1336 1337 1338 1337 1337 1337 1339 1341 1343 1344 1346 1348 1350 1353 1356 1359 1361 1365 1367 1370 1373 1375 1378 1380 1382 1384 1385 1387 1389 1391 1393 1395
1372 1370 1367 1365 1362 1360 1358 1356 1354 1352 1350 1347 1344 1342 1340 1337 1335 1333 1331 1330 1329 1328 1326 1325 1324 1324 1324 1324 1324 1324 1324 1324 1325 1327 1329 1332 1333 1335 1335 1335 1335 1335 1337 1338 1340 1342 1344 1346 1349 1351 1354 1357 1360 1363 1366 1369 1372 1374 1377 1379 1381 1383 1385 1386 1388 1390 1391 1394 1395
1369 1367 1365 1362 1360 1357 1355 1353 1351 1349 1346 1344 1341 1338 1336 1335 1333 1331 1329 1327 1326 1325 1323 1322 1321 1321 1321 1321 1321 1321 1322 1322 1323 1325 1328 1330 1332 1333 1333 1333 1333 1335 1336 1338 1340 1342 1344 1347 1350 1352 1355 1358 1361 1365 1368 1371 1373 1375 1377 1379 1381 1383 1385 1387 1389 1391 1392 1394 1395
1367 1365 1362 1359 1357 1355 1352 1350 1348 1345 1343 1340 1338 1335 1333 1331 1329 1328 1326 1325 1324 1323 1321 1319 1318 1318 1318 1319 1318 1319 1320 1321 1322 1324 1327 1329 1330 1330 1331 1331 1332 1334 1336 1337 1340 1342 1345 1348 1350 1353 1356 1360 1364 1367 1370 1371 1373 1375 1377 1380 1382 1384 1386 1388 1390 1391 1393 1395 1396
1364 1362 1360 1357 1354 1352 1350 1347 1345 1342 1340 1337 1335 1332 1330 1328 1326 1325 1323 1323 1322 1320 1319 1317 1316 1316 1316 1316 1316 1317 1318 1320 1321 1323 1325 1327 1328 1328 1328 1329 1331 1334 1335 1337 1340 1343 1346 1349 1352 1355 1359 1362 1365 1368 1370 1371 1373 1375 1378 1380 1382 1384 1386 1388 1390 1392 1393 1395 1396
1362 1360 1357 1355 1352 1349 1346 1344 1342 1339 1337 1334 1332 1330 1327 1325 1324 1322 1320 1320 1320 1318 1316 1315 1315 1314 1314 1313 1314 1315 1317 1319 1321 1323 1324 1325 1325 1325 1326 1328 1330 1333 1335 1337 1340 1344 1347 1350 1354 1358 1361 1364 1366 1368 1369 1371 1373 1375 1378 1380 1383 1385 1387 1389 1390 1392 1393 1394 1396
1359 1357 1355 1352 1349 1346 1344 1341 1339 1336 1334 1331 1329 1326 1325 1323 1321 1319 1318 1317 1317 1315 1314 1312 1312 1313 1313 1311 1312 1314 1316 1319 1320 1322 1322 1323 1323 1324 1325 1327 1330 1332 1335 1338 1341 1345 1349 1353 1357 1360 1363 1365 1366 1367 1369 1371 1373 1375 1377 1380 1382 1385 1387 1389 1390 1391 1393 1394 1396
1356 1354 1352 1349 1346 1344 1341 1338 1335 1333 1331 1329 1326 1324 1322 1320 1319 1317 1315 1314 1314 1313 1311 1310 1310 1311 1311 1310 1310 1312 1315 1318 1320 1321 1321 1322 1322 1323 1325 1327 1329 1331 1334 1338 1342 1346 1350 1355 1358 1361 1363 1365 1366 1367 1369 1371 1373 1375 1377 1380 1382 1384 1386 1388 1389 1391 1392 1394 1396
1353 1351 1349 1346 1343 1341 1338 1335 1332 1330 1328 1326 1324 1321 1320 1318 1316 1314 1313 1312 1311 1310 1308 1307 1308 1309 1309 1308 1309 1311 1314 1317 1319 1320 1320 1321 1322 1323 1325 1327 1329 1331 1335 1339 1343 1347 1351 1355 1359 1361 1363 1365 1366 1368 1369 1371 1373 1375 1377 1379 1381 1383 1385 1387 1388 1390 1392 1394 1396
Wind_Speed
21 21 22 22 23 23 24 24 24 24 24 24 25 26 27 28 28 28 28 28 28 29 29 30 31 32 32 32 33 34 35 33 31 30 30 32 35 38 39 39 39 41 44 49 52 53 52 51 50 50 50 51 51 50 47 45 43 42 42 41 39 37 36 36 37 37 34 31 30
22 22 22 23 23 24 24 25 25 26 26 26 26 26 27 28 29 30 30 30 29 29 30 31 31 32 34 35 36 36 36 36 35 33 32 32 33 36 39 40 40 39 41 45 50 53 54 54 54 54 54 53 53 51 50 49 46 44 43 43 41 40 38 37 38 38 36 32 30
23 23 23 23 24 24 25 26 26 27 28 28 28 28 28 29 29 30 31 31 31 31 31 31 32 33 35 36 36 37 38 38 39 37 35 34 34 35 38 41 43 42 42 43 47 51 53 55 57 57 57 56 55 54 52 52 50 47 45 44 44 43 42 41 41 41 39 36 33
23 24 24 24 25 25 26 27 28 28 29 29 30 30 30 30 30 30 31 32 32 32 32 31 32 34 35 37 39 41 42 42 43 42 41 38 36 36 38 41 44 47 47 45 46 48 50 54 56 58 58 58 57 56 55 54 52 50 47 46 46 46 46 46 44 44 44 42 37
24 25 25 25 26 26 26 27 28 29 29 29 30 30 31 31 31 31 31 32 32 32 32 31 32 33 35 38 40 42 43 43 45 45 44 42 40 38 38 40 43 47 49 49 48 48 50 52 55 57 57 57 57 57 56 55 54 51 49 48 47 48 49 49 48 47 47 46 42
25 26 26 26 26 27 27 27 28 29 29 30 30 31 32 32 32 32 32 32 33 33 34 34 34 35 37 39 41 42 42 41 43 45 46 45 43 41 39 39 41 44 47 50 51 50 51 52 54 56 56 56 56 56 56 54 53 52 51 49 49 49 50 50 49 48 48 47 44
26 27 27 27 27 27 27 28 28 29 30 30 31 32 32 33 33 34 35 35 35 36 36 36 36 36 37 38 40 41 41 41 43 45 47 47 45 44 42 40 40 41 43 47 49 50 51 52 53 54 55 55 55 55 54 53 52 52 52 51 50 49 49 50 49 48 47 46 44
27 27 27 27 27 28 28 28 28 29 30 31 31 32 33 34 35 36 36 37 37 37 37 37 37 37 37 37 39 41 41 41 42 42 41 42 44 45 45 43 41 40 41 42 45 48 50 52 53 53 54 55 55 54 53 53 52 52 52 52 50 49 49 49 48 47 46 45 44
28 28 28 28 28 28 29 29 29 29 30 31 32 33 33 34 35 36 37 37 37 37 37 37 38 38 37 38 39 41 41 40 41 40 41 42 43 45 46 45 43 41 41 41 43 46 49 51 52 53 53 54 55 55 54 54 53 53 53 52 51 49 48 48 48 47 47 46 46
29 29 29 29 29 29 30 30 30 31 31 32 33 33 33 34 35 36 36 37 37 37 37 38 39 38 38 38 40 41 41 41 41 41 41 43 44 46 47 46 45 43 42 41 42 45 47 49 50 51 52 53 54 55 55 54 54 53 53 53 51 49 48 48 49 49 48 48 48
29 29 29 30 30 30 31 31 31 31 32 32 33 33 33 34 35 35 36 36 37 37 37 38 39 38 38 38 40 41 41 41 41 41 42 43 44 45 46 46 46 45 43 42 42 43 45 46 47 48 49 51 52 53 54 54 54 53 53 53 52 51 50 49 49 50 50 50 50
30 30 30 30 30 31 31 31 31 31 32 32 33 33 33 34 34 35 35 36 36 36 36 37 38 39 39 39 40 40 41 41 41 42 42 43 43 45 46 47 47 46 44 42 42 42 43 45 45 45 46 47 49 50 51 52 53 53 53 53 52 52 51 51 51 51 51 51 51
30 30 30 30 31 31 31 31 31 31 32 32 33 33 33 33 34 34 35 35 36 36 36 36 38 39 40 40 40 41 42 42 42 44 45 45 45 46 46 47 47 46 44 42 41 42 43 44 45 45 45 45 46 47 49 50 51 52 53 53 52 52 52 52 52 52 52 52 51
31 31 31 31 31 31 31 31 31 31 32 33 33 33 33 34 34 34 34 35 36 35 35 37 38 39 40 40 41 42 43 43 43 44 45 45 45 45 46 46 46 45 44 42 41 42 43 44 45 45 45 45 45 45 46 48 49 51 52 53 53 53 53 53 53 53 53 52 51
32 32 32 32 31 31 31 31 31 32 33 33 34 34 34 34 34 34 35 35 36 36 36 37 38 38 38 40 41 42 43 42 43 43 44 44 44 45 45 45 44 44 43 41 41 41 43 44 44 45 45 45 44 44 45 46 47 49 50 52 53 54 54 53 53 54 53 53 51
32 32 32 32 32 31 31 31 31 32 34 35 36 37 37 36 36 36 36 36 37 37 37 38 38 38 39 41 43 43 42 42 43 44 44 44 44 44 44 44 44 43 43 41 40 41 42 43 44 44 44 44 44 44 44 45 46 47 49 50 52 53 53 53 53 53 53 53 51
33 33 33 32 32 32 32 31 32 33 35 37 39 40 40 39 38 38 38 38 38 38 38 39 39 39 40 42 42 42 41 42 43 45 45 45 45 44 44 43 43 43 42 41 41 41 41 42 43 43 43 43 43 43 44 44 45 46 47 49 50 51 52 53 53 53 52 52 52
34 34 33 33 33 32 32 32 34 36 38 40 41 41 41 41 40 40 39 39 39 39 40 40 40 40 40 41 41 40 40 41 42 45 46 46 46 45 44 43 43 42 41 41 40 41 41 41 42 42 42 42 42 43 43 44 45 46 47 48 49 50 51 52 52 52 52 52 52
34 34 34 33 33 32 32 33 35 38 41 42 43 43 43 43 42 41 40 40 40 40 41 41 41 41 41 41 41 41 40 40 41 44 46 47 46 45 44 43 42 41 40 40 40 40 41 41 41 41 41 41 41 42 42 43 45 46 47 48 49 49 50 50 51 51 51 50 50
34 34 34 33 33 33 33 35 37 40 42 43 43 44 44 44 42 41 40 40 40 40 40 41 41 41 42 41 41 40 40 40 41 44 46 47 45 44 43 42 41 40 39 39 40 40 40 39 40 40 41 41 40 40 41 42 44 45 46 47 48 48 49 49 48 47 46 46 45
34 34 34 34 34 34 35 36 39 41 42 43 44 45 45 44 42 41 40 40 40 40 40 40 40 41 41 41 40 40 40 40 41 43 45 45 44 43 42 41 40 39 38 38 39 39 39 38 39 39 40 40 40 40 40 41 42 44 45 46 46 46 46 45 44 42 41 40 40
34 35 35 35 35 36 36 38 39 41 42 44 45 45 45 43 43 42 41 41 41 40 39 39 39 40 40 40 40 39 39 40 41 42 43 44 44 43 42 41 40 39 38 37 38 38 38 38 38 39 39 40 39 40 40 41 42 43 44 44 44 43 42 41 40 39 38 38 37
35 36 36 36 36 37 37 38 39 40 42 43 44 44 44 43 43 42 41 41 41 41 40 39 39 39 39 39 39 39 38 39 40 41 42 42 43 42 42 41 40 39 38 37 38 38 37 38 38 39 40 40 40 40 41 42 43 43 43 43 42 41 40 39 39 38 38 38 38
37 37 38 37 37 37 37 38 38 39 40 41 42 43 43 43 43 42 41 41 41 41 40 40 39 38 38 38 38 38 38 39 40 41 42 41 41 41 40 40 40 39 39 39 38 38 39 39 40 40 41 41 41 41 42 42 43 43 43 43 42 41 40 40 39 39 39 39 38
39 39 38 38 38 38 38 38 38 38 39 40 41 42 43 43 42 42 41 41 40 40 40 40 40 39 37 37 37 37 38 39 41 42 43 41 40 39 39 38 39 39 39 39 38 40 42 42 42 42 42 42 42 42 42 43 43 43 43 43 43 42 41 40 39 39 38 37 37
39 39 39 39 38 38 38 38 38 38 39 40 41 42 43 43 43 42 42 41 41 40 40 41 40 39 38 37 36 37 38 40 42 43 43 41 40 39 39 39 38 39 39 38 39 42 44 44 45 45 44 43 43 43 43 43 43 43 43 43 43 42 41 40 39 38 37 36 36
39 39 39 39 39 39 39 39 38 38 39 39 40 41 42 43 44 44 43 41 41 40 40 40 40 39 38 37 37 37 38 39 41 42 42 41 40 40 39 39 39 39 39 38 41 43 45 46 46 46 45 44 44 44 44 43 43 43 43 43 43 42 42 40 39 37 36 36 37
39 39 39 39 39 39 39 38 38 38 39 40 41 42 43 44 44 44 43 42 41 40 40 40 39 38 37 37 36 36 36 37 38 39 39 39 38 39 39 39 38 38 38 39 41 44 46 47 47 46 46 45 44 44 44 44 43 43 43 42 42 42 41 40 39 39 39 39 40
39 39 40 39 39 40 39 39 39 39 39 40 42 43 44 44 44 44 43 42 41 40 40 39 38 37 37 36 34 32 32 34 35 36 36 36 36 36 37 38 38 36 36 38 42 45 46 47 47 46 46 46 45 45 44 44 43 43 42 42 41 41 41 40 40 41 41 42 42
39 39 40 39 39 39 39 40 39 39 40 41 42 44 44 44 44 44 43 42 41 40 39 37 36 36 36 34 31 29 30 31 32 33 33 33 33 34 35 36 36 35 35 38 42 45 46 47 46 46 46 46 46 45 44 43 43 43 42 41 41 41 41 41 42 43 43 44 43
38 39 39 39 39 39 39 40 40 40 40 41 43 45 45 45 45 45 43 41 40 39 38 36 35 35 34 32 29 29 30 31 32 32 32 31 31 32 34 35 35 34 36 39 43 45 46 46 46 46 46 46 46 45 44 43 43 42 42 41 41 41 41 42 43 44 44 44 43
38 38 39 39 39 40 40 40 40 40 41 43 44 45 46 46 46 44 42 40 40 39 37 36 35 34 33 31 29 30 31 32 33 33 32 31 31 32 33 33 33 34 37 40 43 44 45 46 46 46 46 46 46 44 43 42 41 40 40 40 40 41 42 43 43 44 43 43 43
37 37 38 38 39 40 40 40 41 42 43 44 45 46 46 47 46 44 42 40 39 38 37 36 35 34 32 30 30 31 32 33 34 35 33 31 31 31 32 31 32 35 38 40 42 44 45 46 46 46 46 46 44 42 40 39 37 37 36 37 38 40 41 42 43 43 42 42 41
37 37 37 38 38 39 41 41 42 42 43 44 46 46 46 46 45 43 42 40 39 37 36 34 33 33 32 31 31 32 33 35 36 36 34 32 31 31 30 30 32 35 37 40 42 44 45 46 46 46 45 44 41 38 36 34 34 34 34 35 37 38 40 41 41 41 41 41 41
37 37 37 38 39 40 41 43 43 42 43 44 46 47 47 46 44 42 41 39 38 36 35 33 31 31 31 31 31 31 32 34 36 36 33 31 31 30 29 30 32 34 36 39 42 45 46 46 46 45 44 42 38 35 33 33 33 33 34 35 36 37 37 38 38 39 39 40 40
36 37 38 39 40 41 42 43 43 43 43 45 46 47 47 46 44 42 40 38 37 36 34 32 31 30 29 29 31 30 30 32 34 34 31 30 30 30 30 30 31 32 36 40 43 45 46 45 45 44 42 39 35 33 32 33 33 34 35 35 35 35 35 36 36 37 38 38 39
36 37 38 39 40 41 42 42 43 43 44 46 47 47 46 45 43 41 39 37 36 35 34 33 32 29 27 29 30 30 29 29 31 31 29 29 30 31 30 30 30 32 36 41 44 45 44 43 43 42 41 38 34 33 33 33 34 34 34 34 34 34 34 34 34 35 36 36 37
37 37 38 40 41 42 42 43 43 44 45 46 46 46 45 43 42 41 39 38 36 35 34 33 31 27 26 29 31 30 28 28 29 28 28 30 31 32 31 31 31 34 38 42 44 43 42 41 41 41 39 37 34 33 34 34 34 34 34 33 33 33 33 32 32 33 34 35 34
38 38 39 41 42 42 42 43 44 44 44 44 45 44 44 43 42 41 39 38 36 35 34 32 30 25 25 29 31 31 29 28 27 27 29 32 33 33 32 32 33 36 39 41 41 40 39 39 40 40 39 36 34 34 34 35 35 35 34 34 33 32 32 31 31 31 32 33 32
39 40 41 42 42 42 43 43 44 44 43 43 43 43 42 41 40 39 38 37 36 35 32 30 28 24 24 30 32 32 31 29 27 27 31 33 33 33 32 33 35 37 39 40 39 38 38 40 41 40 39 36 35 35 35 35 35 35 35 34 33 32 31 31 31 31 32 31 30
41 41 42 42 43 43 43 43 44 43 43 42 42 42 41 39 38 37 37 37 35 33 30 27 26 22 25 32 34 34 33 31 28 29 32 34 33 32 32 34 36 39 39 39 38 38 39 41 41 41 39 37 36 36 36 36 36 36 35 35 34 33 32 32 32 32 32 31 30
Wind_Direction
313 310 307 304 301 299 297 295 293 292 292 291 292 293 294 294 294 293 292 291 289 287 285 282 280 278 278 277 277 276 274 274 275 277 276 270 263 255 248 242 236 232 230 229 231 232 232 230 228 226 223 221 218 215 213 212 211 211 210 210 210 210 210 209 209 207 205 203 203
314 311 308 305 303 300 298 296 295 294 293 292 290 290 290 290 291 291 290 289 288 287 285 283 281 279 278 277 277 276 275 275 276 277 276 274 268 260 252 245 239 235 231 229 229 230 231 231 230 229 227 225 221 218 215 213 211 210 208 208 208 208 207 207 207 204 202 200 199
315 313 311 308 305 303 300 298 296 294 293 292 290 289 288 287 287 288 288 287 287 286 285 283 281 279 277 276 275 275 274 275 276 278 279 277 272 265 257 250 244 240 236 232 229 228 229 230 231 231 230 228 225 222 220 216 212 209 207 206 205 205 205 204 204 202 199 196 194
315 314 312 309 306 304 301 298 297 295 294 292 291 289 287 286 285 285 285 286 286 286 285 283 281 279 277 276 274 274 273 274 276 278 280 279 276 269 260 253 248 245 242 239 235 231 229 230 230 231 231 229 225 223 220 217 213 209 206 205 204 204 203 202 201 200 197 194 191
315 314 312 310 307 305 302 300 298 296 294 293 291 289 287 286 285 283 283 283 284 284 284 284 282 280 278 276 275 273 273 274 275 277 279 280 279 273 265 257 251 248 246 245 242 239 235 233 232 232 231 229 225 222 219 216 212 208 205 204 204 203 202 200 199 198 197 195 192
314 313 312 310 308 306 304 302 299 297 295 293 290 289 287 286 285 284 282 281 281 282 283 283 282 281 279 277 275 273 272 272 273 275 278 280 280 277 270 262 255 251 250 248 247 245 242 238 236 234 233 230 226 221 217 214 211 207 205 204 204 203 201 199 198 197 196 195 193
311 311 310 310 309 308 306 304 302 299 297 294 291 289 287 286 285 283 282 281 281 281 281 282 282 281 280 278 276 274 272 271 272 273 275 277 279 279 274 266 259 254 252 251 249 247 245 242 238 236 234 231 226 222 217 213 210 207 205 204 204 202 200 198 197 196 195 194 192
310 309 309 309 309 308 307 306 304 302 299 296 293 289 287 286 285 284 283 282 280 279 279 280 280 280 280 279 277 275 273 271 270 269 269 270 274 277 275 268 261 256 253 251 250 248 245 242 239 237 235 233 230 225 219 214 211 208 206 204 203 201 199 197 196 195 194 192 190
309 309 308 308 308 309 309 307 305 304 301 298 294 291 288 287 285 284 283 282 280 279 278 278 278 279 279 278 277 275 273 270 268 266 265 266 268 271 272 268 261 255 252 250 250 248 245 241 239 237 236 235 232 228 222 216 212 209 206 204 202 200 198 197 196 195 194 192 189
308 308 308 308 308 309 309 308 307 305 303 300 297 294 290 288 286 285 283 282 281 278 277 276 277 278 278 277 276 275 273 270 267 264 263 264 265 267 267 264 258 253 250 249 247 245 243 239 236 234 234 233 231 227 222 217 213 209 206 204 202 199 198 198 198 197 196 194 192
307 307 307 307 307 308 308 308 307 306 305 302 300 296 293 290 288 286 284 283 281 279 276 276 277 277 277 277 276 275 273 269 265 263 261 261 262 263 262 259 255 251 248 246 244 242 239 235 232 230 229 229 227 224 220 216 213 209 207 204 202 201 200 200 200 200 199 197 195
307 306 306 306 306 307 307 307 307 306 305 303 301 298 295 292 290 287 285 284 282 280 278 276 276 276 276 275 275 275 273 269 264 261 259 258 258 258 258 255 252 248 245 243 242 239 236 232 230 227 225 224 222 219 217 215 213 210 207 206 204 203 202 202 201 201 200 199 198
306 305 305 305 305 306 306 306 306 306 305 303 302 299 297 294 291 289 287 285 283 282 280 278 276 275 275 274 274 274 273 269 263 259 258 258 258 257 255 252 248 244 242 241 240 238 235 231 228 226 224 222 219 217 215 214 212 210 208 207 205 205 204 203 201 201 200 199 198
305 305 304 304 304 304 305 305 305 305 304 303 302 300 297 295 293 290 288 286 284 283 281 279 276 275 274 274 275 275 273 268 261 257 255 255 255 254 253 249 244 241 239 238 238 237 234 231 228 226 224 222 219 217 215 213 212 211 209 208 206 205 204 202 201 200 198 197 196
305 304 304 303 303 303 303 304 304 304 304 303 301 300 298 295 293 291 288 285 283 282 280 278 276 274 274 274 275 275 273 267 260 254 252 252 252 251 248 245 240 237 236 236 236 234 232 229 227 225 224 222 220 218 215 212 211 210 209 208 207 205 203 201 199 198 197 196 194
304 303 303 303 302 302 302 302 302 303 303 303 301 300 298 295 293 290 287 285 282 280 279 277 275 274 274 274 275 275 273 267 259 253 249 248 248 246 243 240 237 235 234 233 232 230 229 227 226 224 223 222 220 218 215 212 210 208 207 207 206 204 202 200 197 196 195 195 193
304 303 302 302 301 301 300 300 301 301 302 302 302 301 299 296 293 290 287 284 281 280 278 276 276 275 274 274 275 275 272 266 257 251 248 247 245 243 239 236 234 232 232 231 228 226 224 223 223 222 221 220 218 216 213 211 208 206 204 203 202 201 199 197 195 193 192 191 191
303 302 302 301 300 300 299 299 300 300 302 302 303 302 300 298 294 291 288 284 281 278 277 276 275 275 274 274 275 274 270 264 255 250 247 246 245 241 237 233 230 229 228 227 225 222 220 219 219 218 217 216 214 213 211 208 206 203 201 199 198 197 196 194 192 190 189 188 188
302 302 301 300 300 299 299 298 299 300 302 303 304 303 302 301 298 294 290 287 283 279 276 275 275 274 274 274 274 273 269 262 254 249 246 244 242 238 234 230 227 225 223 222 220 218 217 216 215 214 212 210 209 207 206 204 202 199 197 196 195 193 192 190 189 188 187 187 187
301 301 300 300 299 299 298 298 298 300 302 303 305 305 305 304 301 298 295 291 288 284 279 276 275 274 274 273 273 272 269 263 254 248 244 241 238 234 229 226 223 220 218 216 214 213 212 212 211 210 208 206 203 201 200 198 196 194 193 192 191 191 190 189 188 187 188 188 188
301 300 300 300 299 298 297 297 297 299 302 304 306 307 307 305 303 300 297 295 293 289 284 279 275 274 273 274 274 273 269 263 253 246 241 237 234 230 226 223 220 217 213 210 208 207 207 207 207 205 204 202 199 197 195 193 191 190 189 189 189 189 189 188 188 188 188 189 189
300 300 300 299 298 297 296 296 297 299 302 305 307 308 307 305 303 300 298 297 295 293 288 283 278 275 274 275 275 274 270 263 253 243 237 234 231 228 224 220 216 212 208 205 203 202 202 202 201 200 198 196 194 192 191 189 187 187 187 186 187 187 187 187 187 187 186 185 185
299 300 299 299 298 297 296 296 297 299 302 304 306 307 306 304 302 299 297 295 294 292 291 288 283 278 275 274 274 273 270 263 252 242 234 230 227 224 221 216 212 207 203 199 197 196 196 196 194 193 192 190 188 187 187 186 185 185 184 184 184 183 183 183 182 181 180 179 177
299 300 299 299 298 297 296 297 298 299 301 303 305 305 304 303 301 298 296 294 292 291 291 290 288 284 279 275 273 272 269 262 251 241 234 228 223 218 214 211 207 203 199 196 193 192 191 189 188 187 186 185 184 184 184 184 184 183 182 182 181 179 178 177 176 175 173 172 171
300 300 299 299 298 298 297 297 298 298 300 302 303 303 303 302 300 298 296 294 292 291 290 291 291 290 286 280 275 272 268 261 250 240 232 225 218 212 207 204 201 199 196 193 188 188 188 187 185 183 182 182 181 181 182 182 182 181 181 180 178 175 172 171 169 168 168 167 166
300 300 299 299 298 298 297 297 297 298 300 301 302 302 302 301 300 299 297 295 293 292 291 291 291 291 288 285 279 274 268 259 248 237 228 220 213 207 202 199 197 195 193 189 187 186 187 187 185 183 181 179 179 178 178 178 179 179 178 176 174 170 167 165 164 163 163 163 163
300 299 299 299 298 298 297 297 298 298 299 300 301 301 301 301 300 299 298 296 294 292 291 290 290 289 288 285 281 275 267 256 243 232 222 215 209 204 200 197 195 193 190 188 186 186 186 186 185 182 180 178 177 177 176 175 175 174 173 170 168 166 163 161 160 159 160 161 163
299 299 299 299 298 298 298 298 298 298 299 300 301 301 301 300 300 299 298 297 295 293 291 290 289 289 287 285 280 273 262 249 236 225 217 211 205 201 197 195 193 191 189 188 186 186 186 185 183 181 179 177 176 176 174 172 170 168 166 164 163 162 160 159 159 160 161 164 165
299 299 298 298 298 298 298 298 298 298 299 300 301 301 301 301 299 298 298 297 295 294 292 290 289 288 286 283 277 266 253 240 228 219 213 208 203 199 196 194 191 189 189 188 188 187 186 184 182 180 179 178 176 174 171 169 166 164 162 161 160 160 160 160 161 163 165 166 168
298 298 298 298 298 298 298 298 298 299 299 300 301 301 301 300 299 298 298 297 295 294 292 290 288 286 283 277 268 255 242 230 222 216 211 207 203 199 196 193 190 188 188 188 188 187 185 183 181 180 179 178 175 171 167 165 163 161 160 160 160 161 161 163 164 166 168 169 170
298 298 298 298 297 297 298 298 298 299 299 300 300 301 301 300 299 299 298 296 295 295 293 291 288 284 279 269 258 244 232 224 219 215 211 207 204 199 195 192 190 189 189 188 187 186 184 182 180 179 178 176 172 167 164 162 161 160 160 161 161 163 164 166 168 169 170 171 171
298 298 298 297 297 297 298 298 299 299 299 300 300 301 300 300 300 299 298 296 295 295 294 291 288 284 276 264 249 237 228 222 217 214 211 207 203 199 194 191 191 191 190 188 187 185 182 180 178 176 174 172 168 163 161 160 160 160 161 162 164 165 168 169 171 172 173 173 173
299 298 298 298 297 297 298 298 299 299 299 300 300 300 300 300 300 300 298 297 296 295 293 291 288 283 275 260 245 234 227 221 217 214 211 207 202 197 192 191 192 192 191 188 185 182 179 176 174 173 171 167 163 160 158 158 159 160 161 163 166 169 171 173 174 174 175 175 174
299 299 298 298 298 298 298 299 300 300 300 300 300 300 300 300 300 300 299 298 297 296 293 290 286 281 273 259 243 232 226 222 219 214 210 205 199 193 190 191 192 192 189 186 183 179 176 174 172 171 168 164 159 157 156 157 158 159 161 164 167 171 173 175 175 175 175 175 174
300 299 299 298 298 299 299 300 300 300 299 299 300 300 301 301 301 300 299 299 298 297 294 291 286 280 270 256 242 229 222 219 216 212 206 201 194 189 187 190 191 190 187 183 180 177 175 173 171 169 166 161 157 155 156 157 158 160 162 164 167 170 172 174 174 174 174 174 173
300 300 299 299 299 299 300 300 300 300 299 299 300 301 302 302 302 301 300 299 298 296 294 292 288 280 266 249 235 224 216 213 209 205 199 194 187 186 187 189 188 186 183 180 178 176 174 173 171 169 166 160 156 155 157 158 159 160 162 164 165 168 170 170 171 171 172 172 173
300 300 300 300 300 300 300 300 300 300 299 300 300 301 302 302 302 301 300 298 296 294 293 292 289 279 260 240 229 219 210 205 200 195 190 185 182 183 186 187 185 181 179 177 175 174 173 173 172 170 166 161 158 157 158 158 158 159 160 161 162 164 165 166 167 168 170 172 172
301 301 301 301 300 300 300 300 300 300 299 300 300 301 301 301 300 300 299 298 294 292 292 291 289 276 253 233 224 215 205 196 191 186 182 179 180 183 185 185 181 177 175 174 174 173 173 174 173 171 166 162 160 159 159 158 157 157 157 157 158 159 161 162 163 166 170 172 172
302 302 302 301 301 301 300 300 300 299 299 299 299 300 301 301 301 300 299 298 295 293 292 290 288 273 245 226 218 209 198 188 183 180 178 177 180 184 185 183 178 175 173 173 173 174 175 176 175 172 168 164 162 160 159 158 156 155 154 154 155 155 157 159 161 165 169 171 170
302 303 302 302 302 301 301 300 300 299 299 298 298 299 300 300 300 300 299 298 296 294 292 289 286 269 237 217 211 203 192 183 178 177 177 177 180 183 184 182 176 172 171 171 173 176 178 178 176 173 169 165 163 162 160 158 156 155 154 154 153 154 155 158 162 165 168 169 168
303 304 303 303 302 301 301 300 300 300 299 298 298 299 300 300 300 300 299 298 296 295 294 290 285 262 227 209 205 199 189 180 175 175 176 176 179 182 183 180 174 170 169 171 175 178 180 179 177 174 171 167 165 163 161 159 157 156 155 155 155 155 156 159 162 165 167 167 167